Terminal Aerodrome Forecast
Issued by NWS

Home | Current Version | Previous Version | Text Only | Print | Product List | Glossary On
Versions: 1 2 3 4 5 6 7 8 9 10 11 12 13 14 15 16 17 18 19 20 21 22 23 24 25 26 27 28 29 30 31 32 33 34 35 36 37 38 39 40 41 42 43 44 45 46 47 48 49 50
147
FTUS41 KGYX 220633 AAA
TAFMHT
TAF AMD
KMHT 220633Z 2207/2306 00000KT P6SM FEW027
      TEMPO 2207/2210 BKN030
     FM221000 02005KT P6SM OVC025
     FM221800 04008KT 6SM -SHRA BR OVC020
     FM222000 05007KT 5SM BR OVC019 PROB30 2220/2224 2SM -RA BR
      OVC015=

USA.gov is the U.S. government's official web portal to all federal, state and local government web resources and services.